カタログに戻る

TITAN 34D TRANSTAGE DEB

運用中GTO
NORAD 23041·DEBRIS·🇺🇸 United States

打ち上げ Sep 2, 1988 から Cape Canaveral Space Force Station

Loading…

TLE

古いSource: Space-Track

元期: Sep 13, 2026, 09:39 UTC

1 23041U 88077L   26256.40266077  .00000666  00000-0  18540-2 0  9991
2 23041  27.2244 344.7918 7274120  12.9260 358.5561  2.22442158 58671

AllMySatでTITAN 34D TRANSTAGE DEBをリアルタイム追跡

Download on the App Store